Total_Precipitation_Accumulation
0.59 0.78 1.14 1.54 1.92 2.29 2.48 2.42 2.25 2.25 2.37 2.47 2.34 2.51 2.80 3.09 3.32 3.26 3.18 3.09 3.03 2.97 2.89 2.83 2.73 2.57 2.48 2.31 2.11 1.94 1.77 1.60 1.39 1.34 1.18 0.97 0.84 0.75 0.66 0.59 0.55 0.50 0.46
0.66 0.85 1.21 1.57 1.98 2.30 2.31 2.42 2.55 2.60 2.48 2.73 2.97 3.26 3.58 3.75 4.00 4.26 4.32 4.20 3.95 3.69 3.51 3.31 3.03 2.69 2.51 2.39 2.16 1.91 1.74 1.53 1.35 1.30 1.25 1.02 0.81 0.64 0.53 0.47 0.43 0.40 0.38
0.82 0.98 1.28 1.52 1.79 2.17 2.37 2.50 2.75 2.87 2.83 3.21 3.69 4.16 4.47 4.49 4.51 4.57 4.65 4.61 4.20 3.84 3.54 3.18 2.91 2.65 2.46 2.30 2.16 1.94 1.76 1.53 1.29 1.15 1.16 1.10 0.96 0.72 0.57 0.44 0.35 0.32 0.29
0.68 0.88 1.13 1.50 1.61 1.91 2.14 2.32 2.66 3.04 3.36 3.76 4.24 4.77 5.04 5.18 5.10 4.79 4.55 4.25 3.87 3.51 3.06 2.77 2.69 2.45 2.24 2.08 1.87 1.65 1.49 1.35 1.20 1.09 1.00 0.90 0.80 0.71 0.62 0.51 0.41 0.34 0.30
0.55 0.69 0.83 1.11 1.40 1.65 1.89 2.17 2.46 2.90 3.51 4.21 4.78 5.22 5.50 5.45 5.03 4.55 3.98 3.57 3.23 2.95 2.68 2.43 2.38 2.25 1.97 1.70 1.43 1.22 1.11 1.02 0.97 0.92 0.86 0.79 0.67 0.57 0.52 0.50 0.42 0.37 0.32
0.55 0.58 0.67 0.89 1.10 1.30 1.58 1.94 2.36 2.71 3.26 3.90 4.49 4.86 5.10 5.00 4.58 3.94 3.39 3.04 2.71 2.41 2.17 1.90 1.72 1.59 1.39 1.22 1.06 0.91 0.85 0.80 0.77 0.72 0.69 0.68 0.64 0.57 0.50 0.47 0.42 0.39 0.37
0.55 0.59 0.62 0.73 0.88 1.05 1.27 1.55 1.94 2.43 2.80 3.18 3.72 3.88 3.90 3.67 3.25 2.98 2.75 2.38 2.05 1.77 1.54 1.33 1.19 1.07 0.95 0.86 0.81 0.78 0.73 0.65 0.58 0.53 0.49 0.48 0.43 0.41 0.42 0.45 0.44 0.40 0.36
0.51 0.61 0.63 0.71 0.87 1.02 1.19 1.36 1.62 1.99 2.29 2.44 2.60 2.61 2.50 2.38 2.22 2.03 1.82 1.60 1.37 1.21 1.06 0.93 0.84 0.77 0.73 0.67 0.63 0.58 0.52 0.46 0.42 0.39 0.36 0.34 0.32 0.32 0.34 0.38 0.42 0.44 0.38
0.60 0.64 0.63 0.70 0.83 0.92 1.07 1.16 1.19 1.33 1.44 1.52 1.57 1.62 1.60 1.50 1.45 1.35 1.20 1.09 0.94 0.79 0.68 0.60 0.56 0.54 0.50 0.46 0.40 0.34 0.33 0.35 0.36 0.34 0.33 0.31 0.29 0.29 0.29 0.30 0.34 0.40 0.41
0.69 0.67 0.64 0.66 0.67 0.71 0.79 0.89 0.94 0.94 0.93 0.97 0.96 1.04 1.03 0.96 0.90 0.83 0.76 0.67 0.58 0.49 0.43 0.38 0.36 0.35 0.35 0.34 0.32 0.30 0.28 0.28 0.29 0.28 0.26 0.24 0.22 0.22 0.21 0.23 0.25 0.30 0.39
0.76 0.70 0.67 0.60 0.56 0.57 0.57 0.62 0.70 0.77 0.80 0.79 0.75 0.73 0.70 0.66 0.61 0.57 0.53 0.46 0.40 0.36 0.34 0.32 0.31 0.30 0.31 0.32 0.33 0.35 0.33 0.30 0.27 0.23 0.21 0.19 0.16 0.17 0.17 0.18 0.20 0.23 0.30
0.72 0.65 0.59 0.55 0.49 0.48 0.47 0.47 0.52 0.54 0.58 0.61 0.63 0.61 0.56 0.51 0.48 0.44 0.43 0.41 0.37 0.33 0.33 0.33 0.31 0.29 0.27 0.28 0.29 0.29 0.28 0.27 0.24 0.20 0.17 0.16 0.15 0.15 0.15 0.16 0.18 0.21 0.28
0.90 0.76 0.63 0.54 0.51 0.48 0.48 0.47 0.45 0.44 0.42 0.39 0.39 0.41 0.40 0.38 0.36 0.32 0.31 0.31 0.30 0.29 0.28 0.27 0.27 0.27 0.26 0.25 0.23 0.22 0.21 0.19 0.18 0.18 0.18 0.18 0.18 0.17 0.17 0.19 0.21 0.24 0.28
0.94 0.78 0.67 0.59 0.53 0.49 0.50 0.50 0.44 0.38 0.35 0.31 0.29 0.31 0.32 0.30 0.30 0.28 0.27 0.26 0.26 0.25 0.22 0.20 0.19 0.19 0.18 0.16 0.14 0.11 0.11 0.11 0.10 0.11 0.14 0.16 0.17 0.19 0.23 0.24 0.27 0.31 0.36
0.98 0.90 0.80 0.71 0.59 0.52 0.49 0.47 0.45 0.41 0.36 0.34 0.31 0.30 0.29 0.28 0.28 0.29 0.28 0.26 0.23 0.20 0.18 0.17 0.15 0.13 0.11 0.08 0.06 0.05 0.05 0.07 0.08 0.09 0.12 0.13 0.14 0.19 0.21 0.23 0.27 0.36 0.42
1.25 1.20 1.05 0.87 0.72 0.64 0.58 0.54 0.50 0.42 0.36 0.35 0.36 0.34 0.32 0.33 0.32 0.30 0.29 0.27 0.23 0.19 0.15 0.12 0.10 0.09 0.06 0.05 0.04 0.03 0.04 0.06 0.09 0.13 0.13 0.10 0.10 0.10 0.11 0.15 0.23 0.32 0.42
1.30 1.17 1.06 0.93 0.81 0.75 0.67 0.61 0.56 0.48 0.43 0.42 0.40 0.37 0.35 0.35 0.32 0.29 0.27 0.25 0.20 0.16 0.13 0.09 0.08 0.08 0.06 0.03 0.02 0.02 0.04 0.09 0.14 0.17 0.16 0.12 0.10 0.14 0.20 0.19 0.19 0.28 0.34
1.43 1.32 1.13 0.99 0.85 0.75 0.66 0.59 0.53 0.48 0.45 0.45 0.42 0.39 0.35 0.34 0.31 0.27 0.26 0.22 0.18 0.15 0.13 0.10 0.08 0.09 0.05 0.01 0.01 0.02 0.05 0.11 0.13 0.14 0.16 0.21 0.24 0.18 0.15 0.17 0.27 0.39 0.46
1.32 1.21 1.06 0.95 0.84 0.73 0.61 0.53 0.49 0.46 0.44 0.42 0.36 0.30 0.27 0.25 0.24 0.25 0.23 0.20 0.18 0.15 0.12 0.10 0.10 0.12 0.09 0.01 0.01 0.01 0.06 0.11 0.11 0.11 0.12 0.15 0.21 0.15 0.14 0.22 0.40 0.49 0.61
0.91 0.86 0.83 0.78 0.70 0.61 0.51 0.48 0.46 0.41 0.36 0.30 0.24 0.19 0.16 0.16 0.17 0.18 0.19 0.17 0.16 0.15 0.11 0.10 0.12 0.12 0.11 0.03 0.01 0.02 0.06 0.11 0.11 0.15 0.18 0.14 0.11 0.12 0.17 0.26 0.45 0.61 0.68
0.73 0.70 0.66 0.64 0.58 0.47 0.40 0.38 0.37 0.32 0.24 0.19 0.16 0.13 0.11 0.11 0.13 0.15 0.17 0.18 0.17 0.17 0.14 0.14 0.14 0.12 0.07 0.03 0.01 0.01 0.05 0.09 0.13 0.19 0.24 0.24 0.17 0.16 0.19 0.30 0.50 0.67 0.70
0.73 0.67 0.61 0.55 0.44 0.35 0.32 0.33 0.30 0.21 0.17 0.15 0.14 0.13 0.10 0.08 0.09 0.17 0.20 0.18 0.19 0.19 0.19 0.18 0.16 0.12 0.09 0.05 0.02 0.01 0.02 0.04 0.16 0.30 0.30 0.29 0.25 0.22 0.28 0.41 0.60 0.73 0.88
0.71 0.63 0.51 0.42 0.33 0.27 0.27 0.28 0.24 0.17 0.15 0.17 0.17 0.15 0.13 0.11 0.11 0.16 0.19 0.18 0.18 0.17 0.14 0.15 0.14 0.13 0.13 0.09 0.02 0.02 0.02 0.05 0.15 0.29 0.34 0.33 0.30 0.37 0.56 0.68 0.79 0.91 1.06
0.54 0.45 0.36 0.30 0.23 0.19 0.18 0.17 0.14 0.13 0.15 0.17 0.15 0.14 0.15 0.16 0.16 0.15 0.11 0.12 0.13 0.11 0.10 0.12 0.14 0.17 0.17 0.10 0.06 0.07 0.09 0.11 0.17 0.26 0.39 0.47 0.50 0.64 0.84 0.97 1.06 1.13 1.14
0.33 0.28 0.26 0.23 0.16 0.13 0.11 0.09 0.09 0.09 0.14 0.15 0.14 0.13 0.12 0.14 0.19 0.16 0.07 0.05 0.06 0.03 0.05 0.08 0.11 0.16 0.17 0.08 0.06 0.09 0.12 0.15 0.20 0.25 0.40 0.56 0.62 0.76 0.91 1.02 1.07 1.09 1.07
0.24 0.22 0.19 0.15 0.11 0.09 0.08 0.06 0.05 0.06 0.13 0.17 0.14 0.09 0.08 0.10 0.12 0.16 0.15 0.05 0.01 0.00 0.01 0.03 0.05 0.07 0.09 0.07 0.06 0.08 0.12 0.17 0.23 0.30 0.50 0.63 0.65 0.74 0.83 0.92 0.99 0.98 0.93